sat.trackr.live / text

‹ back to catalog

STARLINK-33876

NORAD 63639 · 2025-083F

PAYLOAD ACTIVE UNKNOWN

§ Identity

Operator
Country
US
Launch date
2025-04-25
Launch site
AFETR
Launch vehicle
Mass (kg)
RCS (m²)

Purposes: comms

External: N2YO · Heavens-Above · Gunter

§ Orbital elements

Epoch: 2026-09-20T12:31:46.347744Z

Period
94.27 min
Inclination
43.0022°
Eccentricity
0.0001400
Mean motion
15.27583874 rev/d
Perigee alt
482.1 km
Apogee alt
484.0 km
Semi-major
6,861.2 km
B*
3.9721e-4
RAAN
344.9164°
Arg perigee
276.3922°
Mean anomaly
83.6771°
Rev number
7,986

§ Raw data

STARLINK-338761 63639U 25083F   26263.52206421  .00010685  00000+0  39721-3 0  99902 63639  43.0022 344.9164 0001400 276.3922  83.6771 15.27583874 79869

JSON: /api/v1/satellites/63639 · /tle

For live sub-satellite position, see the globe view (requires WebGL).

§ Visibility from observer

Set your observer location to see the next 7 days of passes ≥ 10°. The values pass through the URL so the page stays shareable.

No JS? Fill the form by hand. The geolocation button needs JavaScript.